Roosevelt Roads, PR

6:18 PM AST on August 20, 2017 (GMT -0400)
Roosevelt Roads Ns

Weather History for TJNR - November, 2013

Change the Weather History Date:

Thursday, November 21, 2013

  Actual Average Record
Temperature  
Mean Temperature 81 °F -  
Max Temperature 84 °F 83 °F 88 °F (2006)
Min Temperature 78 °F 69 °F 69 °F (2001)
Cooling Degree Days 16    
Growing Degree Days 31 (Base 50)    
Moisture  
Dew Point 74 °F    
Average Humidity 79    
Maximum Humidity 89    
Minimum Humidity 71    
Precipitation  
Precipitation 0.05 in - - ()
Sea Level Pressure  
Sea Level Pressure 30.01 in    
Wind  
Wind Speed 8 mph (ENE)    
Max Wind Speed 13 mph    
Max Gust Speed 24 mph    
Visibility 10 miles    
Events Rain    
Averages and records for this station are not official NWS values.
T = Trace of Precipitation, MM = Missing Value Source: NWS Daily Summary

Daily Weather History Graph

Daily Weather History Graph

Search for Another Location

Airport or City:

Trip Planner

Search our weather history database for the weather conditions in past years. The results will help you decide how hot, cold, wet, or windy it might be!

Date:

Astronomy

Nov. 21, 2013 Rise Set
Actual Time 6:32 AM AST 5:44 PM AST
Civil Twilight 6:09 AM AST 6:07 PM AST
Nautical Twilight 5:42 AM AST 6:34 PM AST
Astronomical Twilight 5:16 AM AST 7:00 PM AST
Moon 9:13 PM AST (11/21) 9:38 AM AST (11/21)
Length of Visible Light 11h 58m
Length of Day
11h 12m
Waning Gibbous, 85% of the Moon is Illuminated
Nov 21
Waning Gibbous
Nov 25
Last Quarter
Dec 2
New
Dec 9
First Quarter
Dec 17
Full

Hourly Weather History & Observations

Time (AST) Temp. Heat Index Dew Point Humidity Pressure Visibility Wind Dir Wind Speed Gust Speed Precip Events Conditions
12:53 AM 80.1 °F 84.2 °F 73.0 °F 79% 30.01 in 10.0 mi ENE 5.8 mph - N/A   Clear
1:53 AM 80.1 °F 84.5 °F 73.9 °F 81% 30.00 in 10.0 mi ENE 6.9 mph - N/A   Scattered Clouds
2:28 AM 80.6 °F 85.4 °F 73.4 °F 79% 29.99 in 10.0 mi ENE 6.9 mph - N/A   Overcast
2:53 AM 80.1 °F 84.5 °F 73.9 °F 81% 29.99 in 10.0 mi ENE 8.1 mph - N/A   Mostly Cloudy
3:53 AM 80.1 °F 83.8 °F 72.0 °F 76% 29.98 in 10.0 mi ENE 5.8 mph - N/A   Mostly Cloudy
4:53 AM 80.1 °F 84.5 °F 73.9 °F 81% 29.99 in 10.0 mi ENE 6.9 mph - N/A   Partly Cloudy
5:30 AM 80.6 °F 86.2 °F 75.2 °F 84% 29.99 in 10.0 mi ENE 8.1 mph - N/A   Mostly Cloudy
5:38 AM 80.6 °F 86.2 °F 75.2 °F 84% 29.99 in 10.0 mi ENE 8.1 mph - N/A   Scattered Clouds
5:53 AM 79.0 °F - 73.9 °F 84% 30.00 in 10.0 mi NE 6.9 mph - N/A   Partly Cloudy
6:53 AM 80.1 °F 84.5 °F 73.9 °F 81% 30.02 in 10.0 mi ENE 11.5 mph 18.4 mph N/A   Overcast
7:10 AM 78.8 °F - 73.4 °F 83% 30.02 in 10.0 mi NNE 6.9 mph - N/A   Scattered Clouds
7:53 AM 80.1 °F 84.5 °F 73.9 °F 81% 30.04 in 10.0 mi NNE 10.4 mph - N/A   Mostly Cloudy
8:09 AM 80.6 °F 86.2 °F 75.2 °F 84% 30.04 in 10.0 mi NE 10.4 mph - N/A   Mostly Cloudy
8:30 AM 80.6 °F 86.2 °F 75.2 °F 84% 30.05 in 10.0 mi NNE 11.5 mph - N/A   Mostly Cloudy
8:53 AM 81.0 °F 86.7 °F 75.0 °F 82% 30.05 in 10.0 mi NE 10.4 mph - N/A   Overcast
9:02 AM 82.4 °F 89.5 °F 75.2 °F 79% 30.05 in 10.0 mi NE 11.5 mph - N/A   Overcast
9:34 AM 82.4 °F 89.5 °F 75.2 °F 79% 30.06 in 10.0 mi ENE 10.4 mph - N/A   Overcast
9:53 AM 82.9 °F 90.2 °F 75.0 °F 77% 30.06 in 10.0 mi ENE 11.5 mph - N/A   Overcast
10:53 AM 84.0 °F 91.9 °F 75.0 °F 74% 30.05 in 10.0 mi ENE 9.2 mph - N/A   Partly Cloudy
11:53 AM 84.0 °F 91.9 °F 75.0 °F 74% 30.03 in 10.0 mi ENE 8.1 mph - N/A   Overcast
12:27 PM 82.4 °F 90.9 °F 77.0 °F 84% 30.02 in 9.0 mi ENE 4.6 mph - 0.00 in Rain Light Rain
12:53 PM 82.9 °F 90.2 °F 75.0 °F 77% 30.01 in 10.0 mi ENE 10.4 mph - 0.00 in   Mostly Cloudy
1:03 PM 84.2 °F 92.3 °F 75.2 °F 74% 30.01 in 10.0 mi ENE 8.1 mph - N/A   Mostly Cloudy
1:53 PM 84.0 °F 91.9 °F 75.0 °F 74% 29.99 in 10.0 mi ENE 6.9 mph - N/A   Scattered Clouds
2:53 PM 84.9 °F 93.3 °F 75.0 °F 72% 29.99 in 10.0 mi East 8.1 mph - N/A   Mostly Cloudy
3:53 PM 82.9 °F 89.4 °F 73.9 °F 74% 29.97 in 10.0 mi ENE 9.2 mph - N/A   Overcast
4:53 PM 82.0 °F 87.9 °F 73.9 °F 76% 29.98 in 10.0 mi ENE 5.8 mph - N/A   Mostly Cloudy
5:16 PM 82.4 °F 89.5 °F 75.2 °F 79% 29.98 in 10.0 mi NE 9.2 mph - N/A   Mostly Cloudy
5:31 PM 80.6 °F 85.4 °F 73.4 °F 79% 29.99 in 10.0 mi ENE 6.9 mph - N/A   Overcast
5:53 PM 81.0 °F 86.2 °F 73.9 °F 79% 29.99 in 10.0 mi ENE 6.9 mph - N/A   Scattered Clouds
6:53 PM 81.0 °F 86.2 °F 73.9 °F 79% 29.99 in 10.0 mi East 8.1 mph - N/A   Partly Cloudy
7:12 PM 80.6 °F 85.4 °F 73.4 °F 79% 30.00 in 10.0 mi ENE 8.1 mph - N/A   Mostly Cloudy
7:20 PM 80.6 °F 85.4 °F 73.4 °F 79% 30.00 in 10.0 mi East 6.9 mph - N/A   Mostly Cloudy
7:53 PM 81.0 °F 86.2 °F 73.9 °F 79% 30.01 in 10.0 mi East 5.8 mph - N/A   Overcast
8:53 PM 82.0 °F 86.7 °F 72.0 °F 71% 30.02 in 10.0 mi East 6.9 mph - N/A   Overcast
9:53 PM 81.0 °F 85.8 °F 73.0 °F 77% 30.02 in 10.0 mi ENE 9.2 mph - 0.00 in   Overcast
10:11 PM 78.8 °F - 75.2 °F 89% 30.02 in 10.0 mi NE 12.7 mph 24.2 mph 0.00 in   Overcast
10:18 PM 78.8 °F - 73.4 °F 83% 30.02 in 10.0 mi NE 12.7 mph 19.6 mph 0.00 in   Mostly Cloudy
10:53 PM 80.1 °F 84.5 °F 73.9 °F 81% 30.02 in 10.0 mi NE 11.5 mph - 0.00 in   Overcast
11:45 PM 78.8 °F - 73.4 °F 83% 30.01 in 9.0 mi East 11.5 mph - 0.05 in Rain Light Rain
11:53 PM 78.1 °F - 73.0 °F 84% 30.01 in 10.0 mi East 10.4 mph 17.3 mph 0.05 in   Overcast